Location: Bucharest
(44.4268°N, 26.1025°E)
Time: 14:00:25
(UTC+02:00)

deb Kosmos-407 - Visible Passes

Search period start: 04 December 2022 00:00
Search period end: 14 December 2022 00:00
Orbit: 696 x 711 km, 74.1° (Epoch: 03 December)

Date Brightness Start Highest point End Pass type
(mag) Time Alt. Az. Time Alt. Az. Time Alt. Az.
04 Dec ? 17:24:47 10° WSW 17:28:56 27° WNW 17:33:06 10° N visible
05 Dec ? 18:13:23 10° NW 18:13:57 10° NW 18:14:32 10° NW visible
06 Dec ? 17:13:02 10° WSW 17:16:52 23° WNW 17:20:43 10° N visible
08 Dec ? 17:01:23 10° W 17:04:49 19° NW 17:08:15 10° N visible
